Regional Weather Roundup
Issued by NWS Boston, MA

Current Version | Previous Version | Text Only | Print | Product List | Glossary Off
Versions: 1 2 3 4 5 6 7 8 9 10 11 12 13 14 15 16 17 18 19 20 21 22 23 24 25 26 27 28
000 ASUS41 KBOX 211210 RWRBOX REGIONAL WEATHER ROUNDUP NATIONAL WEATHER SERVICE TAUNTON MA 800 AM EDT MON AUG 21 2017 NOTE: "FAIR" INDICATES FEW OR NO CLOUDS BELOW 12,000 FEET WITH NO SIGNIFICANT WEATHER AND/OR OBSTRUCTIONS TO VISIBILITY. MAZALL-211300- EASTERN MASSACHUSETTS CITY SKY/WX TMP DP RH WIND PRES REMARKS BOSTON MOSUNNY 72 60 66 W7 30.17R 6HR MIN TEMP: 69; 6HR MAX TEMP: 73; BEVERLY PTSUNNY 68 62 81 SW6 30.16R LAWRENCE MOSUNNY 68 61 78 SW3 30.19R BEDFORD MOSUNNY 66 59 78 CALM 30.16R BLUE HILL N/A 68 58 70 W9 30.18R NORWOOD MOSUNNY 67 62 84 CALM 30.17R MARSHFIELD SUNNY 68 61 77 CALM 30.17R PLYMOUTH MOSUNNY 68 59 73 W7 30.18R TAUNTON MOSUNNY 66 62 87 CALM 30.17S NEW BEDFORD SUNNY 68 63 84 CALM 30.17R $$ MAZALL-211300- CAPE COD AND THE ISLANDS CITY SKY/WX TMP DP RH WIND PRES REMARKS FALMOUTH SUNNY 73 70 88 NW5 30.18 HYANNIS SUNNY 70 62 76 W5 30.16S CHATHAM MOSUNNY 70 64 81 W3 30.18R PROVINCETOWN MOSUNNY 69 64 84 W5 30.17S NANTUCKET SUNNY 71 66 84 W7 30.18R MARTHAS VNYRD SUNNY 71 65 81 CALM 30.18S $$ MAZALL-211300- CENTRAL AND WESTERN MASSACHUSETTS CITY SKY/WX TMP DP RH WIND PRES REMARKS WORCESTER SUNNY 68 57 68 W8 30.20R 6HR MIN TEMP: 63; 6HR MAX TEMP: 68; FITCHBURG SUNNY 70 61 73 CALM 30.19R ORANGE SUNNY 60 58 92 CALM 30.20S SPRINGFIELD PTSUNNY 62 59 90 CALM 30.18S WESTFIELD MOSUNNY 64 61 90 CALM 30.19S NORTH ADAMS MOSUNNY 61 59 93 S3 30.21R PITTSFIELD MOSUNNY 60 57 89 CALM 30.21S FOG $$ RIZALL-211300- RHODE ISLAND CITY SKY/WX TMP DP RH WIND PRES REMARKS PROVIDENCE PTSUNNY 70 61 73 CALM 30.18R 6HR MIN TEMP: 64; 6HR MAX TEMP: 70; NEWPORT SUNNY 71 63 75 NW3 30.18R BLOCK ISLAND SUNNY 73 68 84 W7 30.20R WESTERLY SUNNY 68 63 84 CALM 30.19S $$ CTZALL-211300- CONNECTICUT CITY SKY/WX TMP DP RH WIND PRES REMARKS BRADLEY INTL PTSUNNY 64 60 87 CALM 30.19S 6HR MIN TEMP: 60; 6HR MAX TEMP: 65; HARTFORD SUNNY 67 62 84 CALM 30.19S BRIDGEPORT SUNNY 70 63 78 CALM 30.19S DANBURY SUNNY 68 63 84 CALM 30.21S GROTON SUNNY 69 62 78 CALM 30.18S NEW HAVEN MOSUNNY 69 65 86 CALM 30.19S CHESTER FAIR 73 61 64 CALM 30.20S MERIDEN SUNNY 64 61 90 CALM 30.20S WILLIMANTIC SUNNY 62 60 93 CALM 30.20S OXFORD SUNNY 68 62 81 CALM 30.22R $$ MEZ002-015-021-024-NHZ003-005-008-011-012-014-VTZ005-008-211300- NORTHERN NEW ENGLAND CITY SKY/WX TMP DP RH WIND PRES REMARKS PORTLAND ME CLOUDY 65 59 81 W5 30.13F 6HR MIN TEMP: 58; 6HR MAX TEMP: 65; BANGOR ME MOSUNNY 66 59 78 SW6 30.10S CONCORD NH SUNNY 62 60 93 CALM 30.17S MANCHESTER NH PTSUNNY 63 57 81 CALM 30.16R NASHUA NH SUNNY 63 60 90 CALM 30.18R PORTSMOUTH NH PTSUNNY 66 60 81 W8 30.14R JAFFREY NH SUNNY 64 61 90 S5 30.21S KEENE NH N/A N/A N/A N/A MISG N/A BURLINGTON VT PTSUNNY 66 60 81 S6 30.14R MT. WASHINGTON FOG 50 50 100 NW36 N/A VSB 0 $$ NYZ052-076-211300- EASTERN NEW YORK CITY SKY/WX TMP DP RH WIND PRES REMARKS ALBANY PTSUNNY 65 61 87 S5 30.18S 6HR MIN TEMP: 60; 6HR MAX TEMP: 65; NEW YORK CITY SUNNY 77 65 66 SW3 30.19R 6HR MIN TEMP: 75; 6HR MAX TEMP: 78; $$ ANZALL-211300- MARINE OBSERVATIONS STATION/POSITION TIME TEMP WIND PRES VSBY WAVE AIR SEA DIR/SP/G HT/PER (UTC) (F) (DEG/KT/KT) (MB) (MI) (FT/S) BOSTON BUOY 1150 67 68 250/ 10/ 10 1021.3R 1/ 6 BUZZARDS BAY 1100 68 250/ 7/ 7 1022.1R NANTUCKET SOUND 1050 72 71 240/ 8/ 10 1021.6 1 MASS BAY-STELLWA 1104 66 67 260/ 8/ 10 1020.4R 1/ 8 ISLE OF SHOALS 1100 64 240/ 8/ 8 1020.4R S OF BLOCK IS NOT AVBL $$ ......................KEY......................... SKY/WX - SKY CONDITION/PRESENT WEATHER TMP - TEMPERATURE IN FAHRENHEIT DWPT - DEWPOINT IN FAHRENHEIT RH - RELATIVE HUMIDITY IN PERCENT WIND - DIRECTION AND SPEED IN MPH PRES - MEAN SEA LEVEL PRESSURE IN INCHES OF HG WCI - WIND CHILL INDEX VSB - VISIBILITY IN MILES HX - HEAT INDEX TC - TEMPERATURE IN CELSIUS VRB - VARIABLE WIND DIRECTION N/A - NOT AVAILABLE

USA.gov is the U.S. government's official web portal to all federal, state and local government web resources and services.